Location: Colonia Mina de C?rbuni
(46.1667°N, 22.7167°E)
Time: 07:24:48
(UTC+00:00)

Tiros 1 - Pass Details

Date: 23 April 2024
Orbit: 624 x 657 km, 48.4° (Epoch: 26 May)

Event Time Altitude Azimuth Distance (km) Brightness Sun altitude
Exits shadow 01:25:29 19° 288° (WNW) 1,515 8.8 -18.9°
Maximum altitude 01:28:48 78° 12° (NNE) 645 7.2 -18.5°
Drops below altitude 10° 01:33:24 10° 100° (E) 1,993 10.2 -17.9°
Sets 01:35:43 0° 102° (ESE) 2,897 11.0 -17.6°
